Volver al catálogo

STARLINK-11075

ActivoComunicacionesVLEO
NORAD 58706·PAYLOAD·🇺🇸 United States

Lanzado Jan 3, 2024 desde Vandenberg Space Force Base

Loading…

Próximos Pases (próximas 24 horas)

TLE

ActualizadoSource: CelesTrak SupGP

Época: Sep 14, 2026, 22:28 UTC

1 58706C 24002B   26257.93659722  .00131350  00000+0  72288-3 0  2578
2 58706  53.1458  58.5569 0001815 231.3312 179.0426 15.78949742    18

Sigue STARLINK-11075 en tiempo real con AllMySat

Download on the App Store